Location: Caltech
(34.1382°N, 118.1253°W)
Time: 11:50:19
(UTC-07:00)

Cosmos 2219 - Visible Passes

Search period start: 28 March 2015 00:00
Search period end: 07 April 2015 00:00
Orbit: 834 x 861 km, 71.1° (Epoch: 27 March)

Date Brightness Start Highest point End Pass type
(mag) Time Alt. Az. Time Alt. Az. Time Alt. Az.
28 Mar 4.9 04:55:45 10° N 05:00:49 34° ENE 05:05:55 10° SE visible
28 Mar 3.9 19:43:29 10° SSW 19:49:09 60° WNW 19:54:49 10° NNE visible
29 Mar 4.9 04:42:22 10° N 04:47:25 33° ENE 04:52:28 10° SE visible
29 Mar 3.9 19:30:04 10° SSW 19:35:45 62° WNW 19:41:26 10° NNE visible
30 Mar 4.9 04:29:01 10° N 04:34:00 32° ENE 04:39:02 10° SE visible
30 Mar 4.0 06:13:17 10° NW 06:18:05 28° WSW 06:22:44 10° SSW visible
31 Mar 4.9 04:15:38 10° N 04:20:36 32° ENE 04:25:36 10° SE visible
31 Mar 3.9 05:59:51 10° NW 06:04:42 29° WSW 06:09:23 10° SSW visible
01 Apr 4.9 04:02:15 10° N 04:07:11 31° ENE 04:12:09 10° ESE visible
01 Apr 3.9 05:46:25 10° NW 05:51:18 30° WSW 05:56:03 10° SSW visible
02 Apr 4.9 03:48:54 10° N 03:53:46 30° ENE 03:58:42 10° ESE visible
02 Apr 3.8 05:33:00 10° NW 05:37:55 31° WSW 05:42:42 10° SSW visible
03 Apr 4.9 03:35:31 10° N 03:40:21 29° ENE 03:45:15 10° ESE visible
03 Apr 3.8 05:19:34 10° NW 05:24:31 31° WSW 05:29:21 10° SSW visible
04 Apr 4.9 03:22:09 10° N 03:26:57 29° ENE 03:31:49 10° ESE visible
04 Apr 3.8 05:06:08 10° NW 05:11:07 32° WSW 05:15:59 10° SSW visible
05 Apr 4.9 03:08:46 10° N 03:13:24 28° ENE 03:13:24 28° ENE visible
05 Apr 4.5 04:52:42 10° NW 04:55:08 23° WNW 04:55:08 23° WNW visible
06 Apr 5.2 02:55:24 10° N 02:58:23 23° NNE 02:58:23 23° NNE visible
06 Apr 5.1 04:39:16 10° NW 04:40:12 14° NW 04:40:12 14° NW visible
